Location: Arborea
(39.7744°N, 8.5819°E)
Time: 23:18:51
(UTC+00:00)

Okean 1-7 Rocket - Pass Details

Date: 24 October 2021
Orbit: 617 x 648 km, 82.5° (Epoch: 06 December)

Event Time Altitude Azimuth Distance (km) Brightness Sun altitude
Rises 17:53:39 0° 347° (NNW) 2,909 7.1 -16.0°
Reaches altitude 10° 17:55:55 10° 343° (NNW) 2,002 6.4 -16.5°
Maximum altitude 18:00:14 54° 266° (W) 763 4.4 -17.3°
Drops below altitude 10° 18:04:34 10° 190° (S) 2,004 6.3 -18.1°
Sets 18:06:50 0° 185° (S) 2,913 7.1 -18.6°
